{"data":{"norad_id":61605,"epoch":"2026-05-25T03:44:00.303648Z","epoch_age_seconds":58627,"freshness":"FRESH","line1":"1 61605U 24188M   26145.15555907  .00000682  00000+0  19161-2 0  9991","line2":"2 61605  87.8855  40.8511 0001149  78.2585 281.8671 13.10374742 80294","mean_motion":13.10374742,"eccentricity":0.0001149,"inclination_deg":87.8855,"raan_deg":40.8511,"arg_perigee_deg":78.2585,"mean_anomaly_deg":281.8671,"bstar":0.0019161,"rev_number":8029,"period_min":109.89222806616,"perigee_km":1220.8364853683,"apogee_km":1222.5829301417,"semimajor_km":7599.846707755,"source":"CELESTRAK","updated_at":"2026-05-25T13:38:22.750286Z"}}